Forks, WA

9:07 PM PST on December 03, 2016 (GMT -0800)
Quillayute

Weather History for KUIL - July, 2013

Change the Weather History Date:

Monday, July 22, 2013

  Actual Average Record
Temperature  
Mean Temperature 59 °F 60 °F  
Max Temperature 62 °F 68 °F 92 °F (2004)
Min Temperature 56 °F 51 °F 42 °F (1975)
Degree Days  
Heating Degree Days 6 6  
Month to date heating degree days 75 146  
Since 1 June heating degree days 255 440  
Since 1 July heating degree days 75 146  
Cooling Degree Days 0 0  
Month to date cooling degree days 6 0  
Year to date cooling degree days 16 4  
Since 1 June cooling degree days 13 3  
Growing Degree Days 8 (Base 50)    
Moisture  
Dew Point 54 °F    
Average Humidity 83    
Maximum Humidity 87    
Minimum Humidity 78    
Precipitation  
Precipitation T in 0.05 in 0.42 in (2007)
Month to date precipitation T 1.47  
Year to date precipitation 58.80 53.72  
Sea Level Pressure  
Sea Level Pressure 30.04 in    
Wind  
Wind Speed 3 mph (WSW)    
Max Wind Speed 8 mph    
Max Gust Speed 12 mph    
Visibility 3 miles    
Events Rain    
T = Trace of Precipitation, MM = Missing Value Source: NWS Daily Summary

Daily Weather History Graph

Daily Weather History Graph

Search for Another Location

Airport or City:

Trip Planner

Search our weather history database for the weather conditions in past years. The results will help you decide how hot, cold, wet, or windy it might be!

Date:

Astronomy

Jul. 22, 2013 Rise Set
Actual Time 5:42 AM PDT 9:05 PM PDT
Civil Twilight 5:04 AM PDT 9:43 PM PDT
Nautical Twilight 4:14 AM PDT 10:33 PM PDT
Astronomical Twilight 3:08 AM PDT 11:38 PM PDT
Moon 8:47 PM PDT (7/22) 5:51 AM PDT (7/22)
Length of Visible Light 16h 39m
Length of Day
15h 23m
Full, 100% of the Moon is Illuminated
Jul 22
Full
Jul 29
Last Quarter
Aug 6
New
Aug 14
First Quarter
Aug 20
Full

Hourly Weather History & Observations

Time (PDT) Temp. Dew Point Humidity Pressure Visibility Wind Dir Wind Speed Gust Speed Precip Events Conditions
12:09 AM 57.2 °F 53.6 °F 88% 30.00 in 2.0 mi Calm Calm - N/A   Overcast
12:20 AM 57.2 °F 53.6 °F 88% 30.00 in 3.0 mi WNW 3.5 mph - N/A   Overcast
12:24 AM 57.2 °F 53.6 °F 88% 30.00 in 2.5 mi Calm Calm - N/A   Overcast
12:38 AM 57.2 °F 53.6 °F 88% 30.00 in 4.0 mi Calm Calm - N/A   Overcast
12:53 AM 57.0 °F 53.1 °F 87% 30.00 in 6.0 mi Calm Calm - N/A   Overcast
1:32 AM 57.2 °F 53.6 °F 88% 30.00 in 2.5 mi Calm Calm - N/A   Overcast
1:53 AM 57.0 °F 54.0 °F 89% 30.00 in 2.5 mi Calm Calm - N/A   Overcast
2:12 AM 57.2 °F 53.6 °F 88% 30.00 in 2.0 mi Calm Calm - N/A   Overcast
2:53 AM 57.0 °F 53.1 °F 87% 30.01 in 1.8 mi Calm Calm - 0.00 in Rain Light Rain
3:00 AM 57.2 °F 53.6 °F 88% 30.00 in 2.0 mi Calm Calm - N/A   Overcast
3:09 AM 57.2 °F 53.6 °F 88% 30.00 in 1.8 mi Calm Calm - N/A   Overcast
3:19 AM 57.2 °F 53.6 °F 88% 30.01 in 2.5 mi Calm Calm - N/A   Overcast
3:53 AM 57.0 °F 54.0 °F 89% 30.01 in 2.5 mi Calm Calm - N/A   Overcast
4:19 AM 57.2 °F 53.6 °F 88% 30.00 in 3.0 mi Calm Calm - N/A   Overcast
4:30 AM 57.2 °F 53.6 °F 88% 30.00 in 1.8 mi Calm Calm - N/A   Overcast
4:42 AM 57.2 °F 53.6 °F 88% 30.00 in 1.0 mi Calm Calm - N/A   Overcast
4:53 AM 57.0 °F 54.0 °F 89% 30.00 in 1.5 mi Calm Calm - N/A   Overcast
5:05 AM 57.2 °F 53.6 °F 88% 30.00 in 1.0 mi Calm Calm - N/A   Mist
5:12 AM 57.2 °F 53.6 °F 88% 30.00 in 0.8 mi Calm Calm - 0.01 in   Mist
5:19 AM 57.2 °F 53.6 °F 88% 30.00 in 1.5 mi Calm Calm - 0.01 in   Overcast
5:29 AM 57.2 °F 53.6 °F 88% 30.00 in 2.5 mi Calm Calm - 0.01 in   Overcast
5:53 AM 57.0 °F 54.0 °F 89% 30.01 in 3.0 mi Calm Calm - 0.01 in   Overcast
6:06 AM 57.2 °F 53.6 °F 88% 30.01 in 2.5 mi SW 3.5 mph - N/A   Overcast
6:17 AM 57.2 °F 53.6 °F 88% 30.01 in 1.5 mi Calm Calm - N/A   Overcast
6:44 AM 57.2 °F 53.6 °F 88% 30.02 in 2.0 mi WSW 4.6 mph - N/A   Overcast
6:53 AM 57.0 °F 54.0 °F 89% 30.03 in 1.8 mi SSW 3.5 mph - N/A   Overcast
7:04 AM 57.2 °F 53.6 °F 88% 30.03 in 1.2 mi SW 4.6 mph - N/A   Overcast
7:13 AM 57.2 °F 53.6 °F 88% 30.03 in 1.8 mi WSW 3.5 mph - N/A   Overcast
7:40 AM 57.2 °F 53.6 °F 88% 30.03 in 1.2 mi SW 3.5 mph - N/A   Overcast
7:48 AM 57.2 °F 53.6 °F 88% 30.04 in 1.5 mi WSW 3.5 mph - N/A   Overcast
7:53 AM 57.0 °F 54.0 °F 89% 30.04 in 1.2 mi SW 3.5 mph - N/A   Overcast
8:01 AM 57.2 °F 53.6 °F 88% 30.04 in 2.0 mi SW 3.5 mph - N/A   Overcast
8:13 AM 57.2 °F 53.6 °F 88% 30.04 in 1.5 mi Calm Calm - N/A   Overcast
8:53 AM 57.0 °F 54.0 °F 89% 30.05 in 1.2 mi SSW 4.6 mph - N/A   Overcast
9:13 AM 57.2 °F 53.6 °F 88% 30.06 in 2.0 mi SW 4.6 mph - 0.00 in   Overcast
9:37 AM 57.2 °F 53.6 °F 88% 30.06 in 4.0 mi South 3.5 mph - 0.00 in   Overcast
9:53 AM 57.9 °F 54.0 °F 87% 30.06 in 3.0 mi SSW 3.5 mph - 0.00 in   Overcast
10:53 AM 59.0 °F 55.0 °F 87% 30.07 in 5.0 mi SSW 4.6 mph - N/A   Overcast
11:34 AM 59.0 °F 53.6 °F 82% 30.08 in 2.5 mi SSW 4.6 mph - 0.00 in   Haze
11:53 AM 57.9 °F 54.0 °F 87% 30.09 in 2.0 mi Calm Calm - 0.00 in   Overcast
12:28 PM 59.0 °F 53.6 °F 82% 30.09 in 3.0 mi South 3.5 mph - N/A   Haze
12:53 PM 60.1 °F 55.0 °F 83% 30.09 in 2.5 mi SSW 5.8 mph - N/A   Haze
1:00 PM 59.0 °F 53.6 °F 82% 30.09 in 3.0 mi SW 3.5 mph - N/A   Haze
1:53 PM 60.1 °F 55.0 °F 83% 30.09 in 5.0 mi SSW 3.5 mph - N/A   Haze
2:53 PM 61.0 °F 55.0 °F 81% 30.09 in 5.0 mi WSW 4.6 mph - N/A   Haze
3:53 PM 61.0 °F 54.0 °F 78% 30.09 in 6.0 mi Variable 3.5 mph - N/A   Haze
4:53 PM 60.1 °F 54.0 °F 80% 30.09 in 5.0 mi West 4.6 mph - N/A   Haze
5:53 PM 59.0 °F 54.0 °F 83% 30.08 in 5.0 mi West 3.5 mph - N/A   Haze
6:53 PM 57.9 °F 53.1 °F 84% 30.07 in 5.0 mi WNW 4.6 mph - N/A   Haze
7:20 PM 57.2 °F 53.6 °F 88% 30.07 in 5.0 mi WNW 3.5 mph - N/A   Haze
7:53 PM 57.9 °F 52.0 °F 81% 30.07 in 6.0 mi NW 5.8 mph - N/A   Haze
8:06 PM 57.2 °F 51.8 °F 82% 30.07 in 5.0 mi NW 4.6 mph - N/A   Haze
8:53 PM 57.0 °F 52.0 °F 83% 30.08 in 5.0 mi NNW 4.6 mph - N/A   Haze
9:09 PM 57.2 °F 51.8 °F 82% 30.08 in 4.0 mi Calm Calm - N/A   Haze
9:53 PM 55.9 °F 52.0 °F 87% 30.09 in 4.0 mi NNW 3.5 mph - N/A   Overcast
10:53 PM 55.9 °F 52.0 °F 87% 30.09 in 6.0 mi Variable 4.6 mph - N/A   Overcast
11:17 PM 57.2 °F 51.8 °F 82% 30.09 in 6.0 mi Calm Calm - N/A   Haze
11:53 PM 57.0 °F 52.0 °F 83% 30.09 in 6.0 mi North 3.5 mph - N/A   Haze